Year,Month,Day,Hour,Minute,Value (Times are PST for temperature in C)
2010,08,16,00,00,21.30
2010,08,16,00,05,21.50
2010,08,16,00,06,21.60
2010,08,16,00,07,21.70
2010,08,16,00,08,21.70
2010,08,16,00,09,21.70
2010,08,16,00,10,21.70
2010,08,16,00,11,21.70
2010,08,16,00,12,21.70
2010,08,16,00,13,21.70
2010,08,16,00,14,21.70
2010,08,16,00,15,21.70
2010,08,16,00,16,21.70
2010,08,16,00,17,21.70
2010,08,16,00,18,21.60
2010,08,16,00,19,21.70
2010,08,16,00,20,21.70
2010,08,16,00,21,21.70
2010,08,16,00,22,21.70
2010,08,16,00,23,21.80
2010,08,16,00,24,22.00
2010,08,16,00,25,22.10
2010,08,16,00,26,22.10
2010,08,16,00,27,22.10
2010,08,16,00,28,22.20
2010,08,16,00,29,22.10
2010,08,16,00,30,22.10
2010,08,16,00,31,22.10
2010,08,16,00,32,22.20
2010,08,16,00,33,22.20
2010,08,16,00,34,22.20
2010,08,16,00,35,22.20
2010,08,16,00,36,22.10
2010,08,16,00,37,22.00
2010,08,16,00,38,21.90
2010,08,16,00,39,21.70
2010,08,16,00,40,21.70
2010,08,16,00,41,21.60
2010,08,16,00,42,21.50
2010,08,16,00,43,21.50
2010,08,16,00,44,21.40
2010,08,16,00,45,21.40
2010,08,16,00,46,21.50
2010,08,16,00,47,21.50
2010,08,16,00,48,21.50
2010,08,16,00,49,21.50
2010,08,16,00,50,21.50
2010,08,16,00,51,21.40
2010,08,16,00,52,21.40
2010,08,16,00,53,21.40
2010,08,16,00,54,21.40
2010,08,16,00,55,21.30
2010,08,16,00,56,21.30
2010,08,16,00,57,21.30
2010,08,16,00,58,21.40
2010,08,16,00,59,21.40
2010,08,16,01,00,21.40
2010,08,16,01,01,21.40
2010,08,16,01,02,21.40
2010,08,16,01,03,21.30
2010,08,16,01,04,21.40
2010,08,16,01,05,21.50
2010,08,16,01,06,21.80
2010,08,16,01,07,21.90
2010,08,16,01,08,22.00
2010,08,16,01,09,22.00
2010,08,16,01,10,22.20
2010,08,16,01,11,22.30
2010,08,16,01,12,22.30
2010,08,16,01,13,22.30
2010,08,16,01,14,22.30
2010,08,16,01,15,22.30
2010,08,16,01,16,22.20
2010,08,16,01,17,22.10
2010,08,16,01,18,22.00
2010,08,16,01,19,21.90
2010,08,16,01,20,21.90
2010,08,16,01,21,21.90
2010,08,16,01,22,21.90
2010,08,16,01,23,21.90
2010,08,16,01,24,21.90
2010,08,16,01,25,21.90
2010,08,16,01,26,21.90
2010,08,16,01,27,21.80
2010,08,16,01,28,21.80
2010,08,16,01,29,21.70
2010,08,16,01,30,21.60
2010,08,16,01,31,21.60
2010,08,16,01,32,21.60
2010,08,16,01,33,21.50
2010,08,16,01,34,21.40
2010,08,16,01,35,21.40
2010,08,16,01,36,21.40
2010,08,16,01,37,21.40
2010,08,16,01,38,21.40
2010,08,16,01,39,21.30
2010,08,16,01,40,21.30
2010,08,16,01,41,21.30
2010,08,16,01,42,21.30
2010,08,16,01,43,21.20
2010,08,16,01,44,21.20
2010,08,16,01,45,21.20
2010,08,16,01,46,21.10
2010,08,16,01,47,21.10
2010,08,16,01,48,21.10
2010,08,16,01,49,21.10
2010,08,16,01,50,21.10
2010,08,16,01,51,21.10
2010,08,16,01,52,21.20
2010,08,16,01,53,21.20
2010,08,16,01,54,21.20
2010,08,16,01,55,21.20
2010,08,16,01,56,21.20
2010,08,16,01,57,21.10
2010,08,16,01,58,21.10
2010,08,16,01,59,21.10
2010,08,16,02,00,21.10
2010,08,16,02,01,21.10
2010,08,16,02,02,21.10
2010,08,16,02,03,21.10
2010,08,16,02,04,21.10
2010,08,16,02,05,21.20
2010,08,16,02,06,21.20
2010,08,16,02,07,21.20
2010,08,16,02,08,21.20
2010,08,16,02,09,21.20
2010,08,16,02,10,21.10
2010,08,16,02,11,21.10
2010,08,16,02,12,21.10
2010,08,16,02,13,21.10
2010,08,16,02,14,21.10
2010,08,16,02,15,21.00
2010,08,16,02,16,21.00
2010,08,16,02,17,21.00
2010,08,16,02,18,21.00
2010,08,16,02,19,21.00
2010,08,16,02,20,21.00
2010,08,16,02,21,21.00
2010,08,16,02,22,21.00
2010,08,16,02,23,21.00
2010,08,16,02,24,20.90
2010,08,16,02,25,20.90
2010,08,16,02,26,20.90
2010,08,16,02,27,20.90
2010,08,16,02,28,20.90
2010,08,16,02,29,20.90
2010,08,16,02,30,20.90
2010,08,16,02,31,20.80
2010,08,16,02,32,20.80
2010,08,16,02,33,20.80
2010,08,16,02,34,20.80
2010,08,16,02,35,20.80
2010,08,16,02,36,20.70
2010,08,16,02,37,20.70
2010,08,16,02,38,20.70
2010,08,16,02,39,20.70
2010,08,16,02,40,20.60
2010,08,16,02,41,20.70
2010,08,16,02,42,20.70
2010,08,16,02,43,20.80
2010,08,16,02,44,21.00
2010,08,16,02,45,21.10
2010,08,16,02,46,21.20
2010,08,16,02,47,21.30
2010,08,16,02,48,21.40
2010,08,16,02,49,21.50
2010,08,16,02,50,21.60
2010,08,16,02,51,21.60
2010,08,16,02,52,21.70
2010,08,16,02,53,21.70
2010,08,16,02,54,21.80
2010,08,16,02,55,21.90
2010,08,16,02,56,21.90
2010,08,16,02,57,22.00
2010,08,16,02,58,22.10
2010,08,16,02,59,22.10
2010,08,16,03,00,22.10
2010,08,16,03,01,22.00
2010,08,16,03,02,22.00
2010,08,16,03,03,21.90
2010,08,16,03,04,21.90
2010,08,16,03,05,21.90
2010,08,16,03,06,21.90
2010,08,16,03,07,21.90
2010,08,16,03,08,21.90
2010,08,16,03,09,21.90
2010,08,16,03,10,21.90
2010,08,16,03,11,21.90
2010,08,16,03,12,21.80
2010,08,16,03,13,21.80
2010,08,16,03,14,21.70
2010,08,16,03,15,21.70
2010,08,16,03,16,21.60
2010,08,16,03,17,21.50
2010,08,16,03,18,21.40
2010,08,16,03,19,21.30
2010,08,16,03,20,21.30
2010,08,16,03,21,21.30
2010,08,16,03,22,21.20
2010,08,16,03,23,21.30
2010,08,16,03,24,21.30
2010,08,16,03,25,21.30
2010,08,16,03,26,21.20
2010,08,16,03,27,21.10
2010,08,16,03,28,21.10
2010,08,16,03,29,21.00
2010,08,16,03,30,21.00
2010,08,16,03,31,21.10
2010,08,16,03,32,21.10
2010,08,16,03,33,21.10
2010,08,16,03,34,21.10
2010,08,16,03,35,21.10
2010,08,16,03,36,21.10
2010,08,16,03,37,21.00
2010,08,16,03,38,21.00
2010,08,16,03,39,20.90
2010,08,16,03,40,20.80
2010,08,16,03,41,20.80
2010,08,16,03,42,20.70
2010,08,16,03,43,20.70
2010,08,16,03,44,20.70
2010,08,16,03,45,20.70
2010,08,16,03,46,20.70
2010,08,16,03,47,20.70
2010,08,16,03,48,20.70
2010,08,16,03,49,20.80
2010,08,16,03,50,20.80
2010,08,16,03,51,20.90
2010,08,16,03,52,20.90
2010,08,16,03,53,20.90
2010,08,16,03,54,20.90
2010,08,16,03,55,20.90
2010,08,16,03,56,20.90
2010,08,16,03,57,20.90
2010,08,16,03,58,20.80
2010,08,16,03,59,20.80
2010,08,16,04,00,20.80
2010,08,16,04,01,20.80
2010,08,16,04,02,20.70
2010,08,16,04,03,20.70
2010,08,16,04,04,20.60
2010,08,16,04,05,20.60
2010,08,16,04,06,20.60
2010,08,16,04,07,20.60
2010,08,16,04,08,20.60
2010,08,16,04,09,20.60
2010,08,16,04,10,20.60
2010,08,16,04,11,20.60
2010,08,16,04,12,20.50
2010,08,16,04,13,20.50
2010,08,16,04,14,20.40
2010,08,16,04,15,20.40
2010,08,16,04,16,20.40
2010,08,16,04,17,20.30
2010,08,16,04,18,20.30
2010,08,16,04,19,20.30
2010,08,16,04,20,20.30
2010,08,16,04,21,20.30
2010,08,16,04,22,20.30
2010,08,16,04,23,20.30
2010,08,16,04,24,20.30
2010,08,16,04,25,20.30
2010,08,16,04,26,20.20
2010,08,16,04,27,20.20
2010,08,16,04,28,20.10
2010,08,16,04,29,20.00
2010,08,16,04,30,19.90
2010,08,16,04,31,19.90
2010,08,16,04,32,19.80
2010,08,16,04,33,19.80
2010,08,16,04,34,19.70
2010,08,16,04,35,19.70
2010,08,16,04,36,19.70
2010,08,16,04,37,19.70
2010,08,16,04,38,19.60
2010,08,16,04,39,19.60
2010,08,16,04,40,19.70
2010,08,16,04,41,19.70
2010,08,16,04,42,19.70
2010,08,16,04,43,19.60
2010,08,16,04,44,19.60
2010,08,16,04,45,19.60
2010,08,16,04,46,19.70
2010,08,16,04,47,19.70
2010,08,16,04,48,19.70
2010,08,16,04,49,19.70
2010,08,16,04,50,19.70
2010,08,16,04,51,19.60
2010,08,16,04,52,19.60
2010,08,16,04,53,19.60
2010,08,16,04,54,19.60
2010,08,16,04,55,19.60
2010,08,16,04,56,19.50
2010,08,16,04,57,19.60
2010,08,16,04,58,19.60
2010,08,16,04,59,19.50
2010,08,16,05,00,19.50
2010,08,16,05,01,19.50
2010,08,16,05,02,19.50
2010,08,16,05,03,19.40
2010,08,16,05,04,19.40
2010,08,16,05,05,19.40
2010,08,16,05,06,19.40
2010,08,16,05,07,19.40
2010,08,16,05,08,19.30
2010,08,16,05,09,19.30
2010,08,16,05,10,19.40
2010,08,16,05,11,19.40
2010,08,16,05,12,19.40
2010,08,16,05,13,19.40
2010,08,16,05,14,19.30
2010,08,16,05,15,19.30
2010,08,16,05,16,19.20
2010,08,16,05,17,19.30
2010,08,16,05,18,19.30
2010,08,16,05,19,19.30
2010,08,16,05,20,19.30
2010,08,16,05,21,19.40
2010,08,16,05,22,19.40
2010,08,16,05,23,19.40
2010,08,16,05,24,19.30
2010,08,16,05,25,19.30
2010,08,16,05,26,19.30
2010,08,16,05,27,19.30
2010,08,16,05,28,19.30
2010,08,16,05,29,19.30
2010,08,16,05,30,19.30
2010,08,16,05,31,19.30
2010,08,16,05,32,19.30
2010,08,16,05,33,19.30
2010,08,16,05,34,19.20
2010,08,16,05,35,19.20
2010,08,16,05,36,19.20
2010,08,16,05,37,19.10
2010,08,16,05,38,19.10
2010,08,16,05,39,19.00
2010,08,16,05,40,19.00
2010,08,16,05,41,18.90
2010,08,16,05,42,18.90
2010,08,16,05,43,18.90
2010,08,16,05,44,18.80
2010,08,16,05,45,18.80
2010,08,16,05,46,18.80
2010,08,16,05,47,18.80
2010,08,16,05,48,18.80
2010,08,16,05,49,18.80
2010,08,16,05,50,18.80
2010,08,16,05,51,18.80
2010,08,16,05,52,18.80
2010,08,16,05,53,18.80
2010,08,16,05,54,18.70
2010,08,16,05,55,18.70
2010,08,16,05,56,18.70
2010,08,16,05,57,18.70
2010,08,16,05,58,18.80
2010,08,16,05,59,18.80
2010,08,16,06,00,18.80
2010,08,16,06,01,18.80
2010,08,16,06,02,18.80
2010,08,16,06,03,18.80
2010,08,16,06,04,18.80
2010,08,16,06,05,18.80
2010,08,16,06,06,18.80
2010,08,16,06,07,18.80
2010,08,16,06,08,18.70
2010,08,16,06,09,18.70
2010,08,16,06,10,18.70
2010,08,16,06,11,18.70
2010,08,16,06,12,18.70
2010,08,16,06,13,18.70
2010,08,16,06,14,18.80
2010,08,16,06,15,18.80
2010,08,16,06,16,18.80
2010,08,16,06,17,18.80
2010,08,16,06,18,18.80
2010,08,16,06,19,18.80
2010,08,16,06,20,18.80
2010,08,16,06,21,18.90
2010,08,16,06,22,18.90
2010,08,16,06,23,18.90
2010,08,16,06,24,18.80
2010,08,16,06,25,18.80
2010,08,16,06,26,18.80
2010,08,16,06,27,18.80
2010,08,16,06,28,18.80
2010,08,16,06,29,18.80
2010,08,16,06,30,18.80
2010,08,16,06,31,18.80
2010,08,16,06,32,18.80
2010,08,16,06,33,18.80
2010,08,16,06,34,18.80
2010,08,16,06,35,18.80
2010,08,16,06,36,18.80
2010,08,16,06,37,18.90
2010,08,16,06,38,18.90
2010,08,16,06,39,18.90
2010,08,16,06,40,18.90
2010,08,16,06,41,18.90
2010,08,16,06,42,18.90
2010,08,16,06,43,18.90
2010,08,16,06,44,18.90
2010,08,16,06,45,18.90
2010,08,16,06,46,19.00
2010,08,16,06,47,19.00
2010,08,16,06,48,19.00
2010,08,16,06,49,19.00
2010,08,16,06,50,19.10
2010,08,16,06,51,19.10
2010,08,16,06,52,19.10
2010,08,16,06,53,19.10
2010,08,16,06,54,19.10
2010,08,16,06,55,19.10
2010,08,16,06,56,19.10
2010,08,16,06,57,19.20
2010,08,16,06,58,19.20
2010,08,16,06,59,19.20
2010,08,16,07,00,19.20
2010,08,16,07,01,19.20
2010,08,16,07,02,19.30
2010,08,16,07,03,19.30
2010,08,16,07,04,19.30
2010,08,16,07,05,19.30
2010,08,16,07,06,19.30
2010,08,16,07,07,19.30
2010,08,16,07,08,19.30
2010,08,16,07,09,19.30
2010,08,16,07,10,19.30
2010,08,16,07,11,19.30
2010,08,16,07,12,19.40
2010,08,16,07,13,19.40
2010,08,16,07,14,19.40
2010,08,16,07,15,19.40
2010,08,16,07,16,19.50
2010,08,16,07,17,19.50
2010,08,16,07,18,19.50
2010,08,16,07,19,19.60
2010,08,16,07,20,19.60
2010,08,16,07,21,19.60
2010,08,16,07,22,19.60
2010,08,16,07,23,19.70
2010,08,16,07,24,19.70
2010,08,16,07,25,19.70
2010,08,16,07,26,19.80
2010,08,16,07,27,19.80
2010,08,16,07,28,19.80
2010,08,16,07,29,19.90
2010,08,16,07,30,19.90
2010,08,16,07,31,19.90
2010,08,16,07,32,19.90
2010,08,16,07,33,20.00
2010,08,16,07,34,20.00
2010,08,16,07,35,20.00
2010,08,16,07,36,20.10
2010,08,16,07,37,20.10
2010,08,16,07,38,20.20
2010,08,16,07,39,20.20
2010,08,16,07,40,20.20
2010,08,16,07,41,20.20
2010,08,16,07,42,20.20
2010,08,16,07,43,20.30
2010,08,16,07,44,20.30
2010,08,16,07,45,20.30
2010,08,16,07,46,20.40
2010,08,16,07,47,20.40
2010,08,16,07,48,20.40
2010,08,16,07,49,20.50
2010,08,16,07,50,20.50
2010,08,16,07,51,20.60
2010,08,16,07,52,20.60
2010,08,16,07,53,20.70
2010,08,16,07,54,20.80
2010,08,16,07,55,20.80
2010,08,16,07,56,20.80
2010,08,16,07,57,20.90
2010,08,16,07,58,20.90
2010,08,16,07,59,21.00
2010,08,16,08,00,21.00
2010,08,16,08,01,21.00
2010,08,16,08,02,21.10
2010,08,16,08,03,21.10
2010,08,16,08,04,21.20
2010,08,16,08,05,21.20
2010,08,16,08,06,21.20
2010,08,16,08,07,21.30
2010,08,16,08,08,21.30
2010,08,16,08,09,21.40
2010,08,16,08,10,21.40
2010,08,16,08,11,21.50
2010,08,16,08,12,21.60
2010,08,16,08,13,21.60
2010,08,16,08,14,21.70
2010,08,16,08,15,21.80
2010,08,16,08,16,21.90
2010,08,16,08,17,22.00
2010,08,16,08,18,22.00
2010,08,16,08,19,22.10
2010,08,16,08,20,22.20
2010,08,16,08,21,22.30
2010,08,16,08,22,22.40
2010,08,16,08,23,22.50
2010,08,16,08,24,22.60
2010,08,16,08,25,22.70
2010,08,16,08,26,22.80
2010,08,16,08,27,22.80
2010,08,16,08,28,22.90
2010,08,16,08,29,22.90
2010,08,16,08,30,22.90
2010,08,16,08,31,22.90
2010,08,16,08,32,22.90
2010,08,16,08,33,22.90
2010,08,16,08,34,23.00
2010,08,16,08,35,23.00
2010,08,16,08,36,23.00
2010,08,16,08,37,23.10
2010,08,16,08,38,23.10
2010,08,16,08,39,23.20
2010,08,16,08,40,23.20
2010,08,16,08,41,23.30
2010,08,16,08,42,23.40
2010,08,16,08,43,23.50
2010,08,16,08,44,23.60
2010,08,16,08,45,23.70
2010,08,16,08,46,23.80
2010,08,16,08,47,24.00
2010,08,16,08,48,24.10
2010,08,16,08,49,24.10
2010,08,16,08,50,24.30
2010,08,16,08,51,24.40
2010,08,16,08,52,24.40
2010,08,16,08,53,24.50
2010,08,16,08,54,24.60
2010,08,16,08,55,24.60
2010,08,16,08,56,24.70
2010,08,16,08,57,24.80
2010,08,16,08,58,24.90
2010,08,16,08,59,24.90
2010,08,16,09,00,25.00
2010,08,16,09,01,25.10
2010,08,16,09,02,25.10
2010,08,16,09,03,25.20
2010,08,16,09,04,25.20
2010,08,16,09,05,25.20
2010,08,16,09,06,25.30
2010,08,16,09,07,25.30
2010,08,16,09,08,25.30
2010,08,16,09,09,25.30
2010,08,16,09,10,25.30
2010,08,16,09,11,25.40
2010,08,16,09,12,25.40
2010,08,16,09,13,25.40
2010,08,16,09,14,25.50
2010,08,16,09,15,25.50
2010,08,16,09,16,25.60
2010,08,16,09,17,25.60
2010,08,16,09,18,25.60
2010,08,16,09,19,25.70
2010,08,16,09,20,25.70
2010,08,16,09,21,25.70
2010,08,16,09,22,25.70
2010,08,16,09,23,25.80
2010,08,16,09,24,25.80
2010,08,16,09,25,25.80
2010,08,16,09,26,25.80
2010,08,16,09,27,25.90
2010,08,16,09,28,25.90
2010,08,16,09,29,25.90
2010,08,16,09,30,25.90
2010,08,16,09,31,26.00
2010,08,16,09,32,26.00
2010,08,16,09,33,26.00
2010,08,16,09,34,26.10
2010,08,16,09,35,26.10
2010,08,16,09,36,26.10
2010,08,16,09,37,26.10
2010,08,16,09,38,26.10
2010,08,16,09,39,26.10
2010,08,16,09,40,26.10
2010,08,16,09,41,26.10
2010,08,16,09,42,26.10
2010,08,16,09,43,26.10
2010,08,16,09,44,26.10
2010,08,16,09,45,26.10
2010,08,16,09,46,26.20
2010,08,16,09,47,26.20
2010,08,16,09,48,26.20
2010,08,16,09,49,26.10
2010,08,16,09,50,26.10
2010,08,16,09,51,26.00
2010,08,16,09,52,26.00
2010,08,16,09,53,25.90
2010,08,16,09,54,25.90
2010,08,16,09,55,25.90
2010,08,16,09,56,25.80
2010,08,16,09,57,25.80
2010,08,16,09,58,25.80
2010,08,16,09,59,25.70
2010,08,16,10,00,25.70
2010,08,16,10,01,25.60
2010,08,16,10,02,25.50
2010,08,16,10,03,25.40
2010,08,16,10,04,25.40
2010,08,16,10,05,25.30
2010,08,16,10,06,25.30
2010,08,16,10,07,25.20
2010,08,16,10,08,25.10
2010,08,16,10,09,25.10
2010,08,16,10,10,25.00
2010,08,16,10,11,25.00
2010,08,16,10,12,25.10
2010,08,16,10,13,25.10
2010,08,16,10,14,25.10
2010,08,16,10,15,25.10
2010,08,16,10,16,25.00
2010,08,16,10,17,25.00
2010,08,16,10,18,24.90
2010,08,16,10,19,24.90
2010,08,16,10,20,24.90
2010,08,16,10,21,24.90
2010,08,16,10,22,24.90
2010,08,16,10,23,25.00
2010,08,16,10,24,25.00
2010,08,16,10,25,25.10
2010,08,16,10,26,25.20
2010,08,16,10,27,25.30
2010,08,16,10,28,25.40
2010,08,16,10,29,25.40
2010,08,16,10,30,25.50
2010,08,16,10,31,25.60
2010,08,16,10,32,25.60
2010,08,16,10,33,25.50
2010,08,16,10,34,25.50
2010,08,16,10,35,25.50
2010,08,16,10,36,25.60
2010,08,16,10,37,25.60
2010,08,16,10,38,25.70
2010,08,16,10,39,25.80
2010,08,16,10,40,25.80
2010,08,16,10,41,25.80
2010,08,16,10,42,25.90
2010,08,16,10,43,25.90
2010,08,16,10,44,26.00
2010,08,16,10,45,26.00
2010,08,16,10,46,25.90
2010,08,16,10,47,25.90
2010,08,16,10,48,25.90
2010,08,16,10,49,25.90
2010,08,16,10,50,25.90
2010,08,16,10,51,25.90
2010,08,16,10,52,25.90
2010,08,16,10,53,25.90
2010,08,16,10,54,26.00
2010,08,16,10,55,26.00
2010,08,16,10,56,26.10
2010,08,16,10,57,26.00
2010,08,16,10,58,26.00
2010,08,16,10,59,25.90
2010,08,16,11,00,25.90
2010,08,16,11,01,25.90
2010,08,16,11,02,25.90
2010,08,16,11,03,25.90
2010,08,16,11,04,25.90
2010,08,16,11,05,25.90
2010,08,16,11,06,26.00
2010,08,16,11,07,25.90
2010,08,16,11,08,25.90
2010,08,16,11,09,25.90
2010,08,16,11,10,25.90
2010,08,16,11,11,25.90
2010,08,16,11,12,25.90
2010,08,16,11,13,26.00
2010,08,16,11,14,26.10
2010,08,16,11,15,26.10
2010,08,16,11,16,26.20
2010,08,16,11,17,26.20
2010,08,16,11,18,26.30
2010,08,16,11,19,26.30
2010,08,16,11,20,26.30
2010,08,16,11,21,26.30
2010,08,16,11,22,26.30
2010,08,16,11,23,26.30
2010,08,16,11,24,26.30
2010,08,16,11,25,26.40
2010,08,16,11,26,26.40
2010,08,16,11,27,26.50
2010,08,16,11,28,26.50
2010,08,16,11,29,26.60
2010,08,16,11,30,26.70
2010,08,16,11,31,26.70
2010,08,16,11,32,26.80
2010,08,16,11,33,26.80
2010,08,16,11,34,26.80
2010,08,16,11,35,26.80
2010,08,16,11,36,26.90
2010,08,16,11,37,26.90
2010,08,16,11,38,26.90
2010,08,16,11,39,26.90
2010,08,16,11,40,26.90
2010,08,16,11,41,26.90
2010,08,16,11,42,26.90
2010,08,16,11,43,26.90
2010,08,16,11,44,26.90
2010,08,16,11,45,26.90
2010,08,16,11,46,27.00
2010,08,16,11,47,27.00
2010,08,16,11,48,27.00
2010,08,16,11,49,26.90
2010,08,16,11,50,26.90
2010,08,16,11,51,26.90
2010,08,16,11,52,26.90
2010,08,16,11,53,26.90
2010,08,16,11,54,26.90
2010,08,16,11,55,26.90
2010,08,16,11,56,26.90
2010,08,16,11,57,26.90
2010,08,16,11,58,26.90
2010,08,16,11,59,26.90
2010,08,16,12,00,26.90
2010,08,16,12,01,26.90
2010,08,16,12,02,26.90
2010,08,16,12,03,26.80
2010,08,16,12,04,26.80
2010,08,16,12,05,26.80
2010,08,16,12,06,26.90
2010,08,16,12,07,26.90
2010,08,16,12,08,26.90
2010,08,16,12,09,27.00
2010,08,16,12,10,27.10
2010,08,16,12,11,27.10
2010,08,16,12,12,27.10
2010,08,16,12,13,27.20
2010,08,16,12,14,27.20
2010,08,16,12,15,27.20
2010,08,16,12,16,27.10
2010,08,16,12,17,27.10
2010,08,16,12,18,27.10
2010,08,16,12,19,27.20
2010,08,16,12,20,27.20
2010,08,16,12,21,27.20
2010,08,16,12,22,27.30
2010,08,16,12,23,27.30
2010,08,16,12,24,27.30
2010,08,16,12,25,27.40
2010,08,16,12,26,27.50
2010,08,16,12,27,27.60
2010,08,16,12,28,27.60
2010,08,16,12,29,27.60
2010,08,16,12,30,27.60
2010,08,16,12,31,27.60
2010,08,16,12,32,27.60
2010,08,16,12,33,27.60
2010,08,16,12,34,27.60
2010,08,16,12,35,27.60
2010,08,16,12,36,27.70
2010,08,16,12,37,27.70
2010,08,16,12,38,27.80
2010,08,16,12,39,27.80
2010,08,16,12,40,27.80
2010,08,16,12,41,27.80
2010,08,16,12,42,27.90
2010,08,16,12,43,27.90
2010,08,16,12,44,27.90
2010,08,16,12,45,27.80
2010,08,16,12,46,27.80
2010,08,16,12,47,27.70
2010,08,16,12,48,27.60
2010,08,16,12,49,27.60
2010,08,16,12,50,27.50
2010,08,16,12,51,27.50
2010,08,16,12,52,27.40
2010,08,16,12,53,27.40
2010,08,16,12,54,27.50
2010,08,16,12,55,27.60
2010,08,16,12,56,27.70
2010,08,16,12,57,27.70
2010,08,16,12,58,27.80
2010,08,16,12,59,27.90
2010,08,16,13,00,28.00
2010,08,16,13,01,28.10
2010,08,16,13,02,28.10
2010,08,16,13,03,28.10
2010,08,16,13,04,28.10
2010,08,16,13,05,28.10
2010,08,16,13,06,28.10
2010,08,16,13,07,28.10
2010,08,16,13,08,28.10
2010,08,16,13,09,28.20
2010,08,16,13,10,28.20
2010,08,16,13,11,28.30
2010,08,16,13,12,28.20
2010,08,16,13,13,28.20
2010,08,16,13,14,28.20
2010,08,16,13,15,28.20
2010,08,16,13,16,28.30
2010,08,16,13,17,28.40
2010,08,16,13,18,28.40
2010,08,16,13,19,28.40
2010,08,16,13,20,28.30
2010,08,16,13,21,28.20
2010,08,16,13,22,28.20
2010,08,16,13,23,28.20
2010,08,16,13,24,28.20
2010,08,16,13,25,28.20
2010,08,16,13,26,28.30
2010,08,16,13,27,28.30
2010,08,16,13,28,28.30
2010,08,16,13,29,28.20
2010,08,16,13,30,28.20
2010,08,16,13,31,28.20
2010,08,16,13,32,28.20
2010,08,16,13,33,28.30
2010,08,16,13,34,28.30
2010,08,16,13,35,28.30
2010,08,16,13,36,28.30
2010,08,16,13,37,28.30
2010,08,16,13,38,28.30
2010,08,16,13,39,28.30
2010,08,16,13,40,28.40
2010,08,16,13,41,28.30
2010,08,16,13,42,28.30
2010,08,16,13,43,28.40
2010,08,16,13,44,28.60
2010,08,16,13,45,28.70
2010,08,16,13,46,28.70
2010,08,16,13,47,28.70
2010,08,16,13,48,28.80
2010,08,16,13,49,28.80
2010,08,16,13,50,28.70
2010,08,16,13,51,28.60
2010,08,16,13,52,28.50
2010,08,16,13,53,28.50
2010,08,16,13,54,28.40
2010,08,16,13,55,28.30
2010,08,16,13,56,28.20
2010,08,16,13,57,28.20
2010,08,16,13,58,28.20
2010,08,16,13,59,28.30
2010,08,16,14,00,28.40
2010,08,16,14,01,28.50
2010,08,16,14,02,28.60
2010,08,16,14,03,28.50
2010,08,16,14,04,28.50
2010,08,16,14,05,28.50
2010,08,16,14,06,28.50
2010,08,16,14,07,28.50
2010,08,16,14,08,28.50
2010,08,16,14,09,28.40
2010,08,16,14,10,28.40
2010,08,16,14,11,28.40
2010,08,16,14,12,28.50
2010,08,16,14,13,28.50
2010,08,16,14,14,28.50
2010,08,16,14,15,28.50
2010,08,16,14,16,28.40
2010,08,16,14,17,28.30
2010,08,16,14,18,28.30
2010,08,16,14,19,28.30
2010,08,16,14,20,28.30
2010,08,16,14,21,28.30
2010,08,16,14,22,28.30
2010,08,16,14,23,28.30
2010,08,16,14,24,28.30
2010,08,16,14,25,28.40
2010,08,16,14,26,28.40
2010,08,16,14,27,28.50
2010,08,16,14,28,28.60
2010,08,16,14,29,28.70
2010,08,16,14,30,28.70
2010,08,16,14,31,28.80
2010,08,16,14,32,29.00
2010,08,16,14,33,29.00
2010,08,16,14,34,29.10
2010,08,16,14,35,29.00
2010,08,16,14,36,29.00
2010,08,16,14,37,29.00
2010,08,16,14,38,29.10
2010,08,16,14,39,29.20
2010,08,16,14,40,29.20
2010,08,16,14,41,29.20
2010,08,16,14,42,29.20
2010,08,16,14,43,29.10
2010,08,16,14,44,29.10
2010,08,16,14,45,29.10
2010,08,16,14,46,29.10
2010,08,16,14,47,29.10
2010,08,16,14,48,29.20
2010,08,16,14,49,29.20
2010,08,16,14,50,29.20
2010,08,16,14,51,29.20
2010,08,16,14,52,29.20
2010,08,16,14,53,29.20
2010,08,16,14,54,29.20
2010,08,16,14,55,29.20
2010,08,16,14,56,29.10
2010,08,16,14,57,29.10
2010,08,16,14,58,29.10
2010,08,16,14,59,29.10
2010,08,16,15,00,29.10
2010,08,16,15,01,29.10
2010,08,16,15,02,29.10
2010,08,16,15,03,29.10
2010,08,16,15,04,29.20
2010,08,16,15,05,29.20
2010,08,16,15,06,29.30
2010,08,16,15,07,29.40
2010,08,16,15,08,29.50
2010,08,16,15,09,29.60
2010,08,16,15,10,29.60
2010,08,16,15,11,29.60
2010,08,16,15,12,29.60
2010,08,16,15,13,29.60
2010,08,16,15,14,29.60
2010,08,16,15,15,29.60
2010,08,16,15,16,29.70
2010,08,16,15,17,29.80
2010,08,16,15,18,29.90
2010,08,16,15,19,30.00
2010,08,16,15,20,30.10
2010,08,16,15,21,30.30
2010,08,16,15,22,30.40
2010,08,16,15,23,30.40
2010,08,16,15,24,30.50
2010,08,16,15,25,30.50
2010,08,16,15,26,30.40
2010,08,16,15,27,30.30
2010,08,16,15,28,30.20
2010,08,16,15,29,30.20
2010,08,16,15,30,30.10
2010,08,16,15,31,30.10
2010,08,16,15,32,30.10
2010,08,16,15,33,30.10
2010,08,16,15,34,30.10
2010,08,16,15,35,30.10
2010,08,16,15,36,30.10
2010,08,16,15,37,30.20
2010,08,16,15,38,30.20
2010,08,16,15,39,30.30
2010,08,16,15,40,30.30
2010,08,16,15,41,30.30
2010,08,16,15,42,30.30
2010,08,16,15,43,30.30
2010,08,16,15,44,30.30
2010,08,16,15,45,30.30
2010,08,16,15,46,30.30
2010,08,16,15,47,30.20
2010,08,16,15,48,30.20
2010,08,16,15,49,30.20
2010,08,16,15,50,30.20
2010,08,16,15,51,30.20
2010,08,16,15,52,30.20
2010,08,16,15,53,30.30
2010,08,16,15,54,30.30
2010,08,16,15,55,30.40
2010,08,16,15,56,30.40
2010,08,16,15,57,30.50
2010,08,16,15,58,30.50
2010,08,16,15,59,30.60
2010,08,16,16,00,30.70
2010,08,16,16,01,30.70
2010,08,16,16,02,30.70
2010,08,16,16,03,30.60
2010,08,16,16,04,30.60
2010,08,16,16,05,30.50
2010,08,16,16,06,30.40
2010,08,16,16,07,30.40
2010,08,16,16,08,30.40
2010,08,16,16,09,30.40
2010,08,16,16,10,30.50
2010,08,16,16,11,30.50
2010,08,16,16,12,30.60
2010,08,16,16,13,30.60
2010,08,16,16,14,30.50
2010,08,16,16,15,30.50
2010,08,16,16,16,30.50
2010,08,16,16,17,30.40
2010,08,16,16,18,30.40
2010,08,16,16,19,30.40
2010,08,16,16,20,30.40
2010,08,16,16,21,30.30
2010,08,16,16,22,30.40
2010,08,16,16,23,30.40
2010,08,16,16,24,30.50
2010,08,16,16,25,30.60
2010,08,16,16,26,30.80
2010,08,16,16,27,30.90
2010,08,16,16,28,31.00
2010,08,16,16,29,31.00
2010,08,16,16,30,31.10
2010,08,16,16,31,31.10
2010,08,16,16,32,31.20
2010,08,16,16,33,31.20
2010,08,16,16,34,31.20
2010,08,16,16,35,31.20
2010,08,16,16,36,31.30
2010,08,16,16,37,31.30
2010,08,16,16,38,31.30
2010,08,16,16,39,31.40
2010,08,16,16,40,31.40
2010,08,16,16,41,31.50
2010,08,16,16,42,31.50
2010,08,16,16,43,31.50
2010,08,16,16,44,31.60
2010,08,16,16,45,31.60
2010,08,16,16,46,31.60
2010,08,16,16,47,31.50
2010,08,16,16,48,31.50
2010,08,16,16,49,31.40
2010,08,16,16,50,31.40
2010,08,16,16,51,31.40
2010,08,16,16,52,31.50
2010,08,16,16,53,31.60
2010,08,16,16,54,31.70
2010,08,16,16,55,31.80
2010,08,16,16,56,31.80
2010,08,16,16,57,31.70
2010,08,16,16,58,31.70
2010,08,16,16,59,31.70
2010,08,16,17,00,31.80
2010,08,16,17,01,31.80
2010,08,16,17,02,31.80
2010,08,16,17,03,31.80
2010,08,16,17,04,31.80
2010,08,16,17,05,31.90
2010,08,16,17,06,31.90
2010,08,16,17,07,31.90
2010,08,16,17,08,31.90
2010,08,16,17,09,31.90
2010,08,16,17,10,31.90
2010,08,16,17,11,31.90
2010,08,16,17,12,31.90
2010,08,16,17,13,31.90
2010,08,16,17,14,31.90
2010,08,16,17,15,31.80
2010,08,16,17,16,31.80
2010,08,16,17,17,31.80
2010,08,16,17,18,31.80
2010,08,16,17,19,31.70
2010,08,16,17,20,31.70
2010,08,16,17,21,31.70
2010,08,16,17,22,31.70
2010,08,16,17,23,31.70